When you browse on this site, cookies collect data to enhance your experience and personalize the content and advertising you see.
Visit our Privacy Policy to learn more. By continuing to use the site, you agree to this use of cookies and data.
  • In Czech Republic
  • List of Countries
  • For 7 days
  • Water Temperature
  • Weather Map
  • Weather Widgets
  • user-avatar
    Login

    Hourly Weather Ikskile

    Today, 14 November, Thursday

    Time Temperature Precipitation Wind Pressure Humidity
    00:00 +10°C° 0.2 mm 5 mps 751 mmHg 84%
    01:00 +10°C° 0.2 mm 5 mps 751 mmHg 87%
    02:00 +10°C° 0 mm 5 mps 751 mmHg 83%
    03:00 +10°C° 0.3 mm 5 mps 750 mmHg 83%
    04:00 +10°C° 0.3 mm 5 mps 750 mmHg 83%
    05:00 +10°C° 0.3 mm 5 mps 750 mmHg 83%
    06:00 +10°C° 0 mm 6 mps 750 mmHg 82%
    07:00 +10°C° 0 mm 6 mps 750 mmHg 82%
    08:00 +10°C° 0 mm 5 mps 751 mmHg 79%
    09:00 +10°C° 0.1 mm 6 mps 751 mmHg 80%
    10:00 +11°C° 0.1 mm 6 mps 752 mmHg 81%
    11:00 +11°C° 0.1 mm 6 mps 753 mmHg 83%
    12:00 +10°C° 0.1 mm 5 mps 753 mmHg 84%
    13:00 +11°C° 0.1 mm 4 mps 754 mmHg 85%
    14:00 +11°C° 0.1 mm 3 mps 755 mmHg 86%
    15:00 +10°C° 0.1 mm 3 mps 756 mmHg 87%
    16:00 +10°C° 0.1 mm 3 mps 756 mmHg 88%
    17:00 +9°C° 0.1 mm 2 mps 757 mmHg 89%
    18:00 +9°C° 0 mm 2 mps 758 mmHg 89%
    19:00 +8°C° 0 mm 2 mps 758 mmHg 89%
    20:00 +8°C° 0 mm 2 mps 759 mmHg 89%
    21:00 +7°C° 0 mm 2 mps 760 mmHg 89%
    22:00 +8°C° 0 mm 1 mps 760 mmHg 89%
    23:00 +7°C° 0 mm 1 mps 761 mmHg 88%

    Tomorrow, 15 November, Friday

    Time Temperature Precipitation Wind Pressure Humidity
    00:00 +7°C° 0 mm 1 mps 761 mmHg 89%
    01:00 +7°C° 0 mm 1 mps 762 mmHg 89%
    02:00 +7°C° 0 mm 1 mps 762 mmHg 89%
    03:00 +6°C° 0 mm 2 mps 762 mmHg 89%
    04:00 +6°C° 0 mm 2 mps 762 mmHg 89%
    05:00 +6°C° 0 mm 2 mps 762 mmHg 89%
    06:00 +6°C° 0 mm 2 mps 762 mmHg 89%
    07:00 +6°C° 0 mm 2 mps 762 mmHg 89%
    08:00 +5°C° 0 mm 3 mps 762 mmHg 89%
    09:00 +5°C° 0 mm 3 mps 762 mmHg 87%
    10:00 +7°C° 0 mm 3 mps 762 mmHg 85%
    11:00 +7°C° 0 mm 3 mps 763 mmHg 83%
    12:00 +7°C° 0 mm 3 mps 763 mmHg 85%
    13:00 +8°C° 0 mm 3 mps 762 mmHg 86%
    14:00 +8°C° 0 mm 3 mps 762 mmHg 87%
    15:00 +8°C° 0 mm 3 mps 762 mmHg 88%
    16:00 +7°C° 0 mm 3 mps 762 mmHg 89%
    17:00 +7°C° 0 mm 3 mps 762 mmHg 89%
    18:00 +7°C° 0.1 mm 3 mps 762 mmHg 88%
    19:00 +7°C° 0.1 mm 3 mps 762 mmHg 87%
    20:00 +5°C° 0.1 mm 3 mps 762 mmHg 86%
    21:00 +5°C° 0.1 mm 3 mps 762 mmHg 87%
    22:00 +5°C° 0.1 mm 3 mps 762 mmHg 88%
    23:00 +6°C° 0.1 mm 2 mps 762 mmHg 88%

    Day after tomorrow, 16 November, Saturday

    Time Temperature Precipitation Wind Pressure Humidity
    00:00 +5°C° 0.1 mm 2 mps 761 mmHg 88%
    01:00 +5°C° 0.1 mm 2 mps 761 mmHg 88%
    02:00 +5°C° 0.1 mm 2 mps 761 mmHg 88%
    03:00 +5°C° 0 mm 2 mps 761 mmHg 88%
    04:00 +5°C° 0 mm 2 mps 760 mmHg 88%
    05:00 +4°C° 0 mm 3 mps 760 mmHg 88%
    06:00 +4°C° 0 mm 3 mps 760 mmHg 89%
    07:00 +3°C° 0 mm 3 mps 760 mmHg 89%
    08:00 +3°C° 0 mm 3 mps 760 mmHg 90%
    09:00 +3°C° 0 mm 3 mps 760 mmHg 88%
    10:00 +4°C° 0 mm 3 mps 759 mmHg 87%
    11:00 +4°C° 0 mm 3 mps 759 mmHg 85%
    12:00 +5°C° 0 mm 3 mps 759 mmHg 84%
    13:00 +5°C° 0 mm 3 mps 759 mmHg 83%
    14:00 +7°C° 0 mm 3 mps 759 mmHg 82%
    15:00 +6°C° 0 mm 4 mps 758 mmHg 85%
    16:00 +5°C° 0 mm 4 mps 758 mmHg 88%
    17:00 +5°C° 0 mm 4 mps 757 mmHg 90%
    18:00 +5°C° 0 mm 4 mps 757 mmHg 90%
    19:00 +6°C° 0 mm 4 mps 757 mmHg 90%
    20:00 +6°C° 0 mm 5 mps 757 mmHg 90%
    21:00 +7°C° 0 mm 5 mps 757 mmHg 89%
    22:00 +7°C° 0 mm 5 mps 757 mmHg 89%
    23:00 +8°C° 0 mm 5 mps 757 mmHg 88%

    17 November, Sunday

    Time Temperature Precipitation Wind Pressure Humidity
    00:00 +8°C° 0 mm 5 mps 757 mmHg 88%
    01:00 +8°C° 0 mm 4 mps 757 mmHg 89%
    02:00 +8°C° 0 mm 4 mps 758 mmHg 89%
    03:00 +8°C° 0 mm 4 mps 758 mmHg 90%
    04:00 +7°C° 0 mm 4 mps 758 mmHg 90%
    05:00 +7°C° 0 mm 4 mps 759 mmHg 91%
    06:00 +7°C° 0 mm 3 mps 759 mmHg 91%
    07:00 +7°C° 0 mm 3 mps 760 mmHg 91%
    08:00 +5°C° 0 mm 3 mps 760 mmHg 92%
    09:00 +5°C° 0 mm 3 mps 761 mmHg 88%
    10:00 +7°C° 0 mm 3 mps 761 mmHg 84%
    11:00 +7°C° 0 mm 3 mps 762 mmHg 81%
    12:00 +7°C° 0 mm 3 mps 762 mmHg 80%
    13:00 +7°C° 0 mm 3 mps 762 mmHg 79%
    14:00 +7°C° 0 mm 2 mps 762 mmHg 78%
    15:00 +6°C° 0 mm 2 mps 762 mmHg 81%
    16:00 +6°C° 0 mm 2 mps 762 mmHg 85%
    17:00 +6°C° 0 mm 1 mps 763 mmHg 88%
    18:00 +6°C° 0 mm 1 mps 763 mmHg 88%
    19:00 +5°C° 0 mm 1 mps 763 mmHg 87%
    20:00 +5°C° 0 mm 1 mps 763 mmHg 87%
    21:00 +5°C° 0 mm 1 mps 763 mmHg 87%
    22:00 +5°C° 0 mm 1 mps 763 mmHg 87%
    23:00 +4°C° 0 mm 2 mps 763 mmHg 87%

    18 November, Monday

    Time Temperature Precipitation Wind Pressure Humidity
    00:00 +4°C° 0 mm 2 mps 763 mmHg 89%
    01:00 +5°C° 0 mm 2 mps 763 mmHg 91%
    02:00 +5°C° 0 mm 2 mps 763 mmHg 93%
    03:00 +4°C° 0 mm 3 mps 762 mmHg 94%
    04:00 +5°C° 0 mm 3 mps 762 mmHg 96%
    05:00 +5°C° 0 mm 3 mps 762 mmHg 97%
    06:00 +7°C° 0 mm 3 mps 761 mmHg 96%
    07:00 +6°C° 0 mm 4 mps 761 mmHg 95%
    08:00 +7°C° 0 mm 4 mps 761 mmHg 94%
    09:00 +7°C° 0 mm 4 mps 761 mmHg 92%
    10:00 +7°C° 0 mm 4 mps 761 mmHg 89%
    11:00 +7°C° 0 mm 4 mps 761 mmHg 86%
    12:00 +8°C° 0 mm 4 mps 760 mmHg 83%
    13:00 +8°C° 0 mm 4 mps 760 mmHg 80%
    14:00 +8°C° 0 mm 4 mps 759 mmHg 78%
    15:00 +8°C° 0 mm 4 mps 759 mmHg 78%
    16:00 +7°C° 0 mm 4 mps 759 mmHg 78%
    17:00 +7°C° 0 mm 5 mps 758 mmHg 79%
    18:00 +7°C° 0 mm 4 mps 758 mmHg 78%
    19:00 +6°C° 0 mm 4 mps 758 mmHg 78%
    20:00 +6°C° 0 mm 4 mps 758 mmHg 78%
    21:00 +6°C° 0 mm 4 mps 758 mmHg 78%
    22:00 +5°C° 0 mm 4 mps 758 mmHg 79%
    23:00 +5°C° 0 mm 4 mps 758 mmHg 80%

    19 November, Tuesday

    Time Temperature Precipitation Wind Pressure Humidity
    00:00 +4°C° 0 mm 4 mps 758 mmHg 82%
    01:00 +4°C° 0 mm 4 mps 758 mmHg 84%
    02:00 +4°C° 0 mm 4 mps 758 mmHg 87%
    03:00 +4°C° 0 mm 4 mps 758 mmHg 87%
    04:00 +4°C° 0 mm 4 mps 758 mmHg 88%
    05:00 +3°C° 0 mm 4 mps 758 mmHg 89%
    06:00 +3°C° 0 mm 4 mps 758 mmHg 91%
    07:00 +3°C° 0 mm 4 mps 758 mmHg 92%
    08:00 +3°C° 0 mm 3 mps 758 mmHg 93%
    09:00 +4°C° 0 mm 3 mps 759 mmHg 93%
    10:00 +5°C° 0 mm 3 mps 760 mmHg 92%
    11:00 +5°C° 0 mm 3 mps 760 mmHg 91%
    12:00 +7°C° 0 mm 3 mps 760 mmHg 91%
    13:00 +7°C° 0 mm 2 mps 760 mmHg 91%
    14:00 +7°C° 0 mm 2 mps 761 mmHg 90%
    15:00 +7°C° 0 mm 2 mps 761 mmHg 91%
    16:00 +7°C° 0 mm 2 mps 761 mmHg 92%
    17:00 +7°C° 0 mm 2 mps 761 mmHg 93%
    18:00 +6°C° 0 mm 2 mps 761 mmHg 93%
    19:00 +6°C° 0 mm 2 mps 762 mmHg 94%
    20:00 +6°C° 0 mm 2 mps 762 mmHg 95%
    21:00 +6°C° 0 mm 2 mps 762 mmHg 95%
    22:00 +6°C° 0 mm 2 mps 762 mmHg 95%
    23:00 +5°C° 0 mm 2 mps 762 mmHg 95%
    Show more